Weather History for KSZL - February, 2014

Change the Weather History Date:

Thursday, February 6, 2014

  Actual Average Record
Temperature  
Mean Temperature 4 °F -  
Max Temperature 10 °F 41 °F 93 °F (2003)
Min Temperature -4 °F 23 °F -4 °F (2014)
Degree Days  
Heating Degree Days 61    
Moisture  
Dew Point -6 °F    
Average Humidity 67    
Maximum Humidity 80    
Minimum Humidity 51    
Precipitation  
Precipitation 0.00 in - - ()
Snow  
Snow 0.00 in - - ()
Snow Depth 6.00 in    
Sea Level Pressure  
Sea Level Pressure 30.64 in    
Wind  
Wind Speed 5 mph (NNW)    
Max Wind Speed 9 mph    
Max Gust Speed -    
Visibility 10 miles    
Events      
Averages and records for this station are not official NWS values.
T = Trace of Precipitation, MM = Missing Value Source: NWS Daily Summary

Daily Weather History Graph

Daily Weather History Graph

Search for Another Location

Airport or City:

Trip Planner

Search our weather history database for the weather conditions in past years. The results will help you decide how hot, cold, wet, or windy it might be!

Date:

Astronomy

Feb. 06, 2014 Rise Set
Actual Time 7:15 AM CST 5:41 PM CST
Civil Twilight 6:47 AM CST 6:09 PM CST
Nautical Twilight 6:16 AM CST 6:41 PM CST
Astronomical Twilight 5:44 AM CST 7:12 PM CST
Moon 11:14 AM CST (2/6) 12:31 AM CST (2/6)
Length of Visible Light 11h 22m
Length of Day
10h 26m
Waxing Crescent, 49% of the Moon is Illuminated
Feb 6
Waxing Crescent
Feb 6
First Quarter
Feb 14
Full
Feb 22
Last Quarter
Mar 1
New

Hourly Weather History & Observations

Time (CST) Temp. Windchill Dew Point Humidity Pressure Visibility Wind Dir Wind Speed Gust Speed Precip Events Conditions
12:58 AM -0.0 °F -11.6 °F -7.1 °F 72% 30.67 in 10.0 mi North 5.8 mph - N/A   Clear
1:58 AM -0.8 °F -10.8 °F -7.2 °F 74% 30.67 in 10.0 mi NNW 4.6 mph - N/A   Scattered Clouds
2:58 AM -1.7 °F -17.3 °F -7.8 °F 75% 30.67 in 10.0 mi NNW 9.2 mph - N/A   Scattered Clouds
3:58 AM -1.3 °F -15.7 °F -7.6 °F 75% 30.69 in 10.0 mi NW 8.1 mph - N/A   Scattered Clouds
4:58 AM -1.7 °F -14.9 °F -8.0 °F 75% 30.69 in 10.0 mi NW 6.9 mph - N/A   Partly Cloudy
5:58 AM -1.7 °F -14.9 °F -8.0 °F 75% 30.69 in 10.0 mi NW 6.9 mph - N/A   Partly Cloudy
6:58 AM -1.7 °F -13.5 °F -7.8 °F 75% 30.70 in 10.0 mi WNW 5.8 mph - N/A   Mostly Cloudy
7:58 AM -2.6 °F -16.0 °F -8.7 °F 75% 30.71 in 10.0 mi WNW 6.9 mph - N/A   Mostly Cloudy
8:58 AM 0.1 °F -12.8 °F -6.9 °F 72% 30.72 in 10.0 mi NW 6.9 mph - N/A   Partly Cloudy
9:58 AM 3.2 °F -6.2 °F -5.8 °F 66% 30.71 in 10.0 mi NW 4.6 mph - N/A   Scattered Clouds
10:58 AM 5.4 °F -5.2 °F -5.3 °F 62% 30.71 in 10.0 mi North 5.8 mph - N/A   Scattered Clouds
11:58 AM 6.4 °F -2.4 °F -4.4 °F 61% 30.67 in 10.0 mi Variable 4.6 mph - N/A   Scattered Clouds
12:58 PM 8.1 °F - -3.8 °F 58% 30.64 in 10.0 mi Variable 2.3 mph - N/A   Mostly Cloudy
1:58 PM 9.9 °F -2.2 °F -4.4 °F 53% 30.61 in 10.0 mi North 8.1 mph - N/A   Scattered Clouds
2:58 PM 10.0 °F -0.9 °F -4.7 °F 51% 30.60 in 10.0 mi WNW 6.9 mph - N/A   Mostly Cloudy
3:58 PM 10.2 °F 0.6 °F -3.8 °F 53% 30.58 in 10.0 mi NNE 5.8 mph - N/A   Mostly Cloudy
4:58 PM 9.3 °F 2.8 °F -4.7 °F 53% 30.58 in 10.0 mi NNE 3.5 mph - N/A   Overcast
5:58 PM 6.8 °F - -4.9 °F 59% 30.58 in 10.0 mi East 2.3 mph - N/A   Overcast
6:58 PM 3.7 °F - -5.8 °F 65% 30.56 in 10.0 mi East 2.3 mph - N/A   Mostly Cloudy
7:58 PM 2.8 °F - -6.5 °F 65% 30.56 in 10.0 mi Calm Calm - N/A   Clear
9:58 PM -1.5 °F - -8.1 °F 73% 30.57 in 10.0 mi Calm Calm - N/A   Clear
10:58 PM -0.9 °F - -7.8 °F 73% 30.57 in 10.0 mi SW 2.3 mph - N/A   Clear
11:58 PM -4.2 °F - -8.9 °F 80% 30.54 in 10.0 mi Calm Calm - N/A   Clear